EN

Hourly Weather Alpnach

Today, 28 January, Thursday

Time Temperature Precipitation Wind Pressure Humidity
00:00 +4°C° 1.4 mm 2 mps 703 mmHg 99%
01:00 +4°C° 1.4 mm 2 mps 703 mmHg 99%
02:00 +4°C° 1.2 mm 2 mps 702 mmHg 99%
03:00 +4°C° 1.2 mm 2 mps 702 mmHg 99%
04:00 +4°C° 1.2 mm 2 mps 701 mmHg 99%
05:00 +4°C° 1.5 mm 2 mps 701 mmHg 99%
06:00 +5°C° 1.5 mm 2 mps 700 mmHg 99%
07:00 +5°C° 1.5 mm 2 mps 700 mmHg 99%
08:00 +5°C° 2.2 mm 2 mps 700 mmHg 99%
09:00 +5°C° 2.2 mm 2 mps 700 mmHg 99%
10:00 +4°C° 2.2 mm 3 mps 699 mmHg 99%
11:00 +5°C° 1.6 mm 3 mps 699 mmHg 99%
12:00 +5°C° 1.6 mm 3 mps 699 mmHg 99%
13:00 +5°C° 1.6 mm 3 mps 699 mmHg 99%
14:00 +5°C° 2.5 mm 3 mps 699 mmHg 99%
15:00 +5°C° 2.5 mm 3 mps 699 mmHg 99%
16:00 +5°C° 2.5 mm 3 mps 699 mmHg 98%
17:00 +5°C° 1.3 mm 3 mps 699 mmHg 98%
18:00 +5°C° 1.3 mm 3 mps 699 mmHg 98%
19:00 +5°C° 1.3 mm 3 mps 699 mmHg 98%
20:00 +5°C° 0.9 mm 3 mps 699 mmHg 97%
21:00 +5°C° 0.9 mm 3 mps 700 mmHg 97%
22:00 +5°C° 0.9 mm 3 mps 700 mmHg 97%
23:00 +6°C° 0.4 mm 2 mps 699 mmHg 96%

Tomorrow, 29 January, Friday

Time Temperature Precipitation Wind Pressure Humidity
00:00 +6°C° 0.4 mm 2 mps 699 mmHg 94%
01:00 +5°C° 0.4 mm 2 mps 699 mmHg 92%
02:00 +5°C° 0.2 mm 2 mps 698 mmHg 92%
03:00 +5°C° 0.2 mm 2 mps 697 mmHg 91%
04:00 +6°C° 0.2 mm 1 mps 696 mmHg 91%
05:00 +5°C° 1.2 mm 2 mps 696 mmHg 93%
06:00 +5°C° 1.2 mm 2 mps 695 mmHg 95%
07:00 +5°C° 1.2 mm 2 mps 694 mmHg 97%
08:00 +4°C° 2.9 mm 3 mps 695 mmHg 97%
09:00 +5°C° 2.9 mm 3 mps 695 mmHg 97%
10:00 +5°C° 2.9 mm 3 mps 695 mmHg 97%
11:00 +5°C° 1.4 mm 4 mps 696 mmHg 96%
12:00 +5°C° 1.4 mm 4 mps 696 mmHg 95%
13:00 +5°C° 1.4 mm 4 mps 696 mmHg 93%
14:00 +5°C° 0.3 mm 4 mps 696 mmHg 94%
15:00 +4°C° 0.3 mm 3 mps 695 mmHg 94%
16:00 +4°C° 0.3 mm 3 mps 695 mmHg 94%
17:00 +4°C° 1.8 mm 3 mps 695 mmHg 95%
18:00 +3°C° 1.8 mm 3 mps 695 mmHg 96%
19:00 +3°C° 1.8 mm 3 mps 695 mmHg 97%
20:00 +3°C° 1.7 mm 3 mps 696 mmHg 97%
21:00 +3°C° 1.7 mm 4 mps 696 mmHg 97%
22:00 +3°C° 1.7 mm 4 mps 697 mmHg 96%
23:00 +3°C° 0.9 mm 3 mps 697 mmHg 96%

Day after tomorrow, 30 January, Saturday

Time Temperature Precipitation Wind Pressure Humidity
00:00 +3°C° 0.9 mm 3 mps 698 mmHg 96%
01:00 +3°C° 0.9 mm 3 mps 698 mmHg 96%
02:00 +2°C° 0 mm 3 mps 697 mmHg 92%
03:00 +2°C° 0 mm 2 mps 697 mmHg 88%
04:00 +1°C° 0 mm 2 mps 696 mmHg 84%
05:00 +1°C° 0 mm 2 mps 696 mmHg 80%
06:00 +2°C° 0 mm 2 mps 695 mmHg 76%
07:00 +3°C° 0 mm 1 mps 695 mmHg 72%
08:00 +4°C° 0.1 mm 1 mps 694 mmHg 75%
09:00 +5°C° 0.1 mm 1 mps 694 mmHg 78%
10:00 +6°C° 0.1 mm 1 mps 693 mmHg 81%
11:00 +6°C° 0.4 mm 1 mps 692 mmHg 86%
12:00 +6°C° 0.4 mm 1 mps 692 mmHg 91%
13:00 +6°C° 0.4 mm 1 mps 691 mmHg 96%
14:00 +6°C° 1 mm 1 mps 690 mmHg 97%
15:00 +6°C° 1 mm 1 mps 690 mmHg 97%
16:00 +6°C° 1 mm 1 mps 689 mmHg 97%
17:00 +6°C° 1.5 mm 1 mps 689 mmHg 97%
18:00 +5°C° 1.5 mm 2 mps 690 mmHg 97%
19:00 +4°C° 1.5 mm 2 mps 690 mmHg 97%
20:00 +4°C° 1.2 mm 2 mps 690 mmHg 97%
21:00 +4°C° 1.2 mm 2 mps 690 mmHg 97%
22:00 +4°C° 1.2 mm 2 mps 690 mmHg 97%
23:00 +5°C° 0.8 mm 1 mps 690 mmHg 97%

31 January, Sunday

Time Temperature Precipitation Wind Pressure Humidity
00:00 +5°C° 0.8 mm 1 mps 690 mmHg 98%
01:00 +5°C° 0.8 mm 1 mps 690 mmHg 98%
02:00 +5°C° 0.8 mm 1 mps 690 mmHg 98%
03:00 +4°C° 0.8 mm 1 mps 690 mmHg 98%
04:00 +4°C° 0.8 mm 1 mps 690 mmHg 98%
05:00 +4°C° 0.2 mm 1 mps 690 mmHg 98%
06:00 +4°C° 0.2 mm 1 mps 690 mmHg 97%
07:00 +4°C° 0.2 mm 1 mps 690 mmHg 97%
08:00 +4°C° 0 mm 1 mps 690 mmHg 95%
09:00 +5°C° 0 mm 1 mps 690 mmHg 92%
10:00 +5°C° 0 mm 1 mps 690 mmHg 90%
11:00 +6°C° 0 mm 1 mps 690 mmHg 89%
12:00 +7°C° 0 mm 1 mps 689 mmHg 87%
13:00 +6°C° 0 mm 0 mps 689 mmHg 86%
14:00 +7°C° 0 mm 1 mps 688 mmHg 89%
15:00 +7°C° 0 mm 1 mps 688 mmHg 91%
16:00 +6°C° 0 mm 1 mps 687 mmHg 93%
17:00 +6°C° 0.1 mm 1 mps 687 mmHg 93%
18:00 +6°C° 0.1 mm 1 mps 687 mmHg 93%
19:00 +5°C° 0.1 mm 1 mps 687 mmHg 92%
20:00 +5°C° 0.3 mm 1 mps 687 mmHg 92%
21:00 +5°C° 0.3 mm 1 mps 686 mmHg 92%
22:00 +4°C° 0.3 mm 2 mps 686 mmHg 91%
23:00 +3°C° 0.8 mm 2 mps 686 mmHg 92%

1 February, Monday

Time Temperature Precipitation Wind Pressure Humidity
00:00 +3°C° 0.8 mm 2 mps 686 mmHg 93%
01:00 +3°C° 0.8 mm 2 mps 685 mmHg 94%
02:00 +3°C° 1.7 mm 2 mps 686 mmHg 95%
03:00 +3°C° 1.7 mm 2 mps 686 mmHg 96%
04:00 +3°C° 1.7 mm 2 mps 686 mmHg 97%
05:00 +3°C° 2.6 mm 2 mps 686 mmHg 97%
06:00 +4°C° 2.6 mm 1 mps 687 mmHg 98%
07:00 +5°C° 2.6 mm 1 mps 688 mmHg 98%
08:00 +4°C° 2.4 mm 2 mps 689 mmHg 98%
09:00 +4°C° 2.4 mm 2 mps 689 mmHg 97%
10:00 +5°C° 2.4 mm 2 mps 690 mmHg 97%
11:00 +5°C° 1.3 mm 2 mps 691 mmHg 97%
12:00 +5°C° 1.3 mm 2 mps 691 mmHg 97%
13:00 +5°C° 1.3 mm 2 mps 692 mmHg 97%
14:00 +5°C° 1.3 mm 2 mps 693 mmHg 98%
15:00 +4°C° 1.3 mm 2 mps 693 mmHg 98%
16:00 +4°C° 1.3 mm 2 mps 694 mmHg 98%
17:00 +4°C° 1.1 mm 2 mps 695 mmHg 98%
18:00 +4°C° 1.1 mm 2 mps 696 mmHg 98%
19:00 +4°C° 1.1 mm 2 mps 697 mmHg 98%
20:00 +4°C° 0.5 mm 2 mps 697 mmHg 97%
21:00 +4°C° 0.5 mm 2 mps 698 mmHg 97%
22:00 +5°C° 0.5 mm 1 mps 698 mmHg 97%
23:00 +4°C° 0.6 mm 2 mps 699 mmHg 97%

2 February, Tuesday

Time Temperature Precipitation Wind Pressure Humidity
00:00 +4°C° 0.6 mm 2 mps 699 mmHg 96%
01:00 +4°C° 0.6 mm 2 mps 699 mmHg 96%
02:00 +4°C° 0.1 mm 2 mps 699 mmHg 92%
03:00 +4°C° 0.1 mm 2 mps 699 mmHg 89%
04:00 +3°C° 0.1 mm 2 mps 699 mmHg 85%
05:00 +4°C° 0.1 mm 2 mps 699 mmHg 86%
06:00 +4°C° 0.1 mm 2 mps 699 mmHg 86%
07:00 +5°C° 0.1 mm 2 mps 699 mmHg 87%
08:00 +5°C° 0.6 mm 2 mps 699 mmHg 90%
09:00 +6°C° 0.6 mm 2 mps 699 mmHg 93%
10:00 +6°C° 0.6 mm 2 mps 699 mmHg 95%
11:00 +7°C° 0.1 mm 2 mps 699 mmHg 95%
12:00 +8°C° 0.1 mm 2 mps 699 mmHg 94%
13:00 +9°C° 0.1 mm 2 mps 699 mmHg 94%
14:00 +8°C° 0.6 mm 2 mps 699 mmHg 94%
15:00 +8°C° 0.6 mm 2 mps 699 mmHg 94%
16:00 +8°C° 0.6 mm 3 mps 699 mmHg 95%
17:00 +8°C° 0.2 mm 2 mps 699 mmHg 93%
18:00 +7°C° 0.2 mm 2 mps 699 mmHg 92%
19:00 +7°C° 0.2 mm 2 mps 699 mmHg 91%
20:00 +7°C° 0.2 mm 2 mps 699 mmHg 92%
21:00 +7°C° 0.2 mm 2 mps 699 mmHg 94%
22:00 +8°C° 0.2 mm 1 mps 699 mmHg 95%
23:00 +8°C° 1.1 mm 1 mps 699 mmHg 96%
Show more